Hourly Data Report for May 22, 2012

All times are specified in Local Standard Time (LST). Add 1 hour to adjust for Daylight Saving Time where and when it is observed.

YARMOUTH A
NOVA SCOTIA

43°49'37.000" N
66°05'17.000" W
42.90 m
8206495
71603
YQI

Download Data

Hourly Data (May 2012)
Hourly Data Report for May 22, 2012
Temp Definition
°C
Dew Point Temp Definition
°C
Rel Hum Definition
%
Wind Dir Definition
10's deg

Wind Spd Definition
km/h
Visibility Definition
km
Stn Press Definition
kPa
Hmdx Definition


Wind Chill Definition


Weather Definition


TIME
00:00 Legend Double Dagger 14.3 13.4 94 12 12 10.0 101.63     LegendNANA
01:00 Legend Double Dagger 14.2 14.1 99 14 11 1.2 101.57     Fog
02:00 Legend Double Dagger 14.5 14.5 100 14 12 0.4 101.53     Fog
03:00 Legend Double Dagger 14.6 14.8 101 15 14 0.8 101.48     Drizzle,Fog
04:00 Legend Double Dagger 14.5 14.7 101 12 9 1.2 101.42     Drizzle,Fog
05:00 Legend Double Dagger 14.6 14.8 101 13 8 0.4 101.40     Drizzle,Fog
06:00 Legend Double Dagger 14.7 14.9 101 13 10 0.4 101.39     Fog
07:00 Legend Double Dagger 14.7 14.9 101 15 12 0.4 101.41     Fog
08:00 Legend Double Dagger 15.6 15.9 102 9 13 0.4 101.32     Fog
09:00 Legend Double Dagger 16.4 16.7 102 14 17 0.4 101.35     Fog
10:00 Legend Double Dagger 16.4 16.6 101 16 15 1.2 101.31     Fog
11:00 Legend Double Dagger 18.2 17.9 98 10 15 9.7 101.21     Fog
12:00 Legend Double Dagger 20.8 18.0 84 13 13 10.0 101.13 27   LegendNANA
13:00 Legend Double Dagger 17.2 16.2 94 17 14 10.0 101.12     LegendNANA
14:00 Legend Double Dagger 19.7 17.2 85 12 18 10.0 101.03     Cloudy
15:00 Legend Double Dagger 18.7 17.2 91 12 12 10.0 100.98     Rain
16:00 Legend Double Dagger 18.1 17.1 94 10 16 10.0 100.87     Rain
17:00 Legend Double Dagger 18.2 17.4 95 9 14 10.0 100.80     Cloudy
18:00 Legend Double Dagger 18.2 17.7 97 10 13 10.0 100.73     Drizzle
19:00 Legend Double Dagger 17.5 17.2 98 9 18 10.0 100.67     LegendNANA
20:00 Legend Double Dagger 17.0 16.5 97 10 19 10.0 100.60     Cloudy
21:00 Legend Double Dagger 16.5 15.9 96 10 18 10.0 100.58     LegendNANA
22:00 Legend Double Dagger 15.9 15.4 97 10 15 10.0 100.54     LegendNANA
23:00 Legend Double Dagger 15.5 15.2 98 8 16 10.0 100.47     Cloudy

Notes on Data Quality.

Legend

  • E = Estimated
  • M = Missing
  • NA = Not Available
  • ‡ = Partner data that is not subject to review by the National Climate Archives
Date modified: